{"data":{"norad_id":48777,"intl_designator":"2021-045L","name":"ONEWEB-0247","alt_names":[],"object_type":"PAYLOAD","status":"ACTIVE","operator":null,"country":"UK","launch_date":"2021-05-28","launch_site_code":"VOSTO","launch_vehicle":null,"mission":null,"orbit_class":"UNKNOWN","rcs_meters":null,"size_class":null,"mass_kg":null,"dimensions":null,"purposes":["comms"],"wikipedia_slug":null,"has_3d_model":false,"image_url":null,"decayed_at":null,"tle_current":{"epoch":"2026-05-25T00:37:16.809600Z","epoch_age_seconds":76835,"freshness":"FRESH","line1":"1 48777U 21045L   26145.02588900  .00000043  00000+0  79402-4 0  9997","line2":"2 48777  87.8991 263.8287 0001585  75.0032 285.1273 13.15548427241363","mean_motion":13.15548427,"eccentricity":0.0001585,"inclination_deg":87.8991,"raan_deg":263.8287,"arg_perigee_deg":75.0032,"mean_anomaly_deg":285.1273,"bstar":7.9402e-5,"rev_number":24136,"period_min":109.46005258687,"perigee_km":1200.5698244719,"apogee_km":1202.972655384,"semimajor_km":7579.9082399279,"source":"CELESTRAK","updated_at":"2026-05-25T13:38:22.443465Z"}}}